This is the latest recevied weather packets stored in our database for station/object N2WH. If no packets are shown the sender has not sent any weather packets the latest 10 day(s).
| Time | Temp. | Humidity | Pressure | Rain* | Wind** | Luminosity | Snow |
|---|---|---|---|---|---|---|---|
| 1778134232 | 8.89° C | 97% | 1010.4 hPa | 1.78 mm | - | 0 W/m² | - |
| 1778133929 | 9.44° C | 97% | 1010.7 hPa | 0 mm | - | 0 W/m² | - |
| 1778133626 | 9.44° C | 96% | 1011.1 hPa | 3.05 mm | - | 0 W/m² | - |
| 1778133326 | 9.44° C | 96% | 1010.5 hPa | 4.32 mm | - | 0 W/m² | - |
| 1778133022 | 9.44° C | 96% | 1010.5 hPa | 1.27 mm | - | 0 W/m² | - |
| 1778132719 | 9.44° C | 96% | 1010.5 hPa | 0 mm | - | 0 W/m² | - |
| 1778132416 | 9.44° C | 96% | 1010.4 hPa | 0 mm | - | 0 W/m² | - |
| 1778132114 | 10° C | 95% | 1010.3 hPa | 1.78 mm | - | 0 W/m² | - |
| 1778131812 | 10° C | 95% | 1010.2 hPa | 1.78 mm | - | 0 W/m² | - |
| 1778131510 | 10° C | 94% | 1010 hPa | 1.27 mm | - | 0 W/m² | - |
| 1778131206 | 10° C | 93% | 1009.6 hPa | 7.87 mm | - | 0 W/m² | - |
| 1778130904 | 10.56° C | 91% | 1010.4 hPa | 7.87 mm | - | 0 W/m² | - |
| 1778130600 | 10.56° C | 89% | 1009.8 hPa | 1.27 mm | - | 0 W/m² | - |
| 1778130296 | 10.56° C | 88% | 1010 hPa | 0 mm | - | 0 W/m² | - |
| 1778129994 | 10.56° C | 87% | 1009.8 hPa | 0 mm | - | 0 W/m² | - |
| 1778129690 | 10.56° C | 86% | 1010.2 hPa | 0 mm | - | 0 W/m² | - |
| 1778129388 | 11.11° C | 86% | 1010.3 hPa | 0 mm | - | 0 W/m² | - |
| 1778129084 | 10.56° C | 86% | 1010.2 hPa | 0 mm | - | 0 W/m² | - |
| 1778128780 | 11.11° C | 87% | 1010.2 hPa | 0 mm | - | 0 W/m² | - |
| 1778128476 | 11.11° C | 87% | 1010.2 hPa | 0 mm | - | 0 W/m² | - |
| 1778128173 | 11.11° C | 87% | 1010.2 hPa | 0 mm | - | 0 W/m² | - |
| 1778127870 | 11.11° C | 86% | 1010.3 hPa | 0 mm | - | 0 W/m² | - |
| 1778127566 | 11.11° C | 86% | 1010.5 hPa | 0 mm | - | 0 W/m² | - |
| 1778127262 | 11.11° C | 87% | 1010.4 hPa | 0 mm | - | 0 W/m² | - |
| 1778126960 | 11.11° C | 86% | 1010.4 hPa | 0 mm | - | 0 W/m² | - |
* Rain latest hour (hover to see other rain measurements)
** Current wind speed in m/s (hover to see current wind gust speed)